Location: Cheyres
(46.8153°N, 6.7877°E)
Time: 23:49:46
(UTC+00:00)

Cosmos 372 Rocket - Pass Details

Date: 11 May 2021
Orbit: 738 x 768 km, 74.1° (Epoch: 23 June)

Event Time Altitude Azimuth Distance (km) Brightness Sun altitude
Exits shadow 23:06:59 60° 242° (WSW) 845 4.0 -24.9°
Maximum altitude 23:07:44 70° 294° (WNW) 786 4.0 -24.9°
Drops below altitude 10° 23:12:50 10° 18° (NNE) 2,256 7.3 -24.9°
Sets 23:15:12 0° 21° (NNE) 3,185 8.3 -25.0°
